[[{"header":{"parameterUnit":"m.s-1","parameterCategory":1,"la1":30.2991,"la2":30.254,"lo1":-89.0895,"lo2":-89.0444,"dy":0.0017,"dx":0.0017,"nx":28,"ny":28,"refTime":"2023-09-14T21:00:00:Z","depth":0,"parameterNumber":2,"parameterNumberName":"U-component_of_WINDS"},"data":[0,0,0,0,0,0,0,0,0,0,0,0,0,0,0,0,0,0,0,0,0,0,0,0,0,0,0,0,0,0,0,0,0,0,0,0,0,0,0,0,0,0,0,0,0,0,0,0,0,0,0,0,0,0,0,0,0,0,-3.7848,-3.7848,0,-3.7832,-3.7832,-3.7832,-3.7729,-3.7727,-3.7724,-3.7722,-3.7706,-3.7708,-3.771,0,0,0,0,0,0,0,0,0,0,0,0,0,-3.779,-3.7792,-3.7848,-3.7848,-3.7848,-3.7832,-3.7832,-3.7832,-3.773,-3.7727,-3.7724,-3.7721,-3.7706,-3.7708,-3.771,0,0,0,0,0,0,0,0,0,0,0,0,0,-3.7799,-3.7792,-3.7848,-3.7795,-3.779,-3.7832,-3.7832,-3.7832,-3.773,-3.7727,-3.7723,-3.7719,-3.7705,-3.7708,-3.7711,-3.7803,0,0,-3.7719,-3.7721,0,0,0,0,0,0,0,0,-3.7799,-3.7801,-3.7803,-3.7799,-3.7793,-3.7779,-3.7806,-3.7822,-3.7731,-3.7753,-3.7722,-3.7718,-3.7734,-3.7734,-3.7739,-3.7803,-3.7802,-3.772,-3.7721,-3.7723,-3.7723,0,0,0,0,0,0,0,-3.7798,-3.7801,-3.7842,-3.7803,-3.7797,-3.7772,-3.7769,-3.7808,-3.7765,-3.7751,-3.7743,-3.7743,-3.773,-3.7737,-3.7738,-3.7802,-3.772,-3.7722,-3.7724,-3.7725,-3.7938,-3.7942,0,0,0,0,0,0,-3.7805,-3.7802,-3.7842,-3.7841,-3.7787,-3.7776,-3.7773,-3.7787,-3.7764,-3.7757,-3.7746,-3.7738,-3.7734,-3.7735,-3.7737,-3.7841,-3.7723,-3.7725,-3.7727,-3.7934,-3.7939,-3.7943,0,0,0,0,0,0,-3.7804,-3.781,-3.7843,-3.7819,-3.7822,-3.7781,-3.7798,-3.7789,-3.7795,-3.776,-3.7752,-3.7761,-3.7731,-3.7733,-3.7787,-3.7839,-3.7727,-3.7729,-3.793,-3.7936,-3.7941,-3.8052,0,0,0,0,0,0,-3.7803,-3.781,-3.7844,-3.7821,-3.7823,-3.7893,-3.7801,-3.7791,-3.78,-3.779,-3.7772,-3.7765,-3.7728,-3.7783,-3.779,-3.7841,-3.7731,-3.7925,-3.7932,-3.7939,-3.8044,-3.8061,-3.8076,0,0,0,0,0,-3.7801,-3.7877,-3.7847,-3.7852,-3.7866,-3.7896,-3.7898,-3.7853,-3.7805,-3.7839,-3.7817,-3.7766,-3.7834,-3.779,-3.7796,-3.7849,-3.7921,-3.793,-3.7939,-3.8036,-3.8058,-3.8076,0,0,0,0,0,0,-3.7908,-3.7873,-3.7839,-3.791,-3.7907,-3.7879,-3.792,-3.7878,-3.7889,-3.7879,-3.7824,-3.782,-3.7882,-3.7872,-3.7823,-3.7937,-3.7868,-3.7879,-3.7941,-3.7961,-3.7977,-3.7976,-3.7734,0,0,0,0,0,-3.794,-3.7968,-3.7936,-3.8001,-3.8002,-3.7962,-3.7974,-3.794,-3.7935,-3.7933,-3.7914,-3.7912,-3.7932,-3.7946,-3.7964,-3.8043,-3.8036,-3.8083,-3.81,-3.8113,-3.8122,-3.8161,-3.818,-3.7972,-3.7972,-3.7972,0,0,-3.8006,-3.799,-3.8011,-3.8022,-3.8016,-3.8045,-3.7961,-3.7997,-3.8017,-3.7938,-3.7986,-3.7974,-3.7967,-3.8034,-3.8062,-3.8027,-3.8178,-3.8124,-3.8135,-3.8136,-3.8172,-3.8191,-3.8209,-3.7978,-3.7977,-3.7976,0,0,-3.814,-3.8132,-3.8184,-3.818,-3.8171,-3.8144,-3.8157,-3.8136,-3.8124,-3.8172,-3.8113,-3.8138,-3.8175,-3.8172,-3.8175,-3.8309,-3.8261,-3.8317,-3.84,-3.8439,-3.8455,-3.8469,-3.8514,-3.8531,-3.8326,-3.8326,-3.8327,0,-3.8222,-3.8264,-3.8217,-3.8255,-3.8261,-3.8191,-3.8243,-3.8241,-3.8239,-3.8245,-3.8206,-3.825,-3.8241,-3.8304,-3.8337,-3.8343,-3.8355,-3.8316,-3.8457,-3.847,-3.8483,-3.8525,-3.8542,-3.8333,-3.8332,-3.8331,-3.8331,0,-3.8364,-3.8394,-3.8438,-3.8436,-3.8448,-3.8493,-3.8452,-3.847,-3.8436,-3.8413,-3.8463,-3.845,-3.8462,-3.8475,-3.8443,-3.8534,-3.8512,-3.8467,-3.8396,-3.851,-3.8548,-3.8564,-3.8342,-3.834,-3.8338,-3.8336,0,0,-3.8562,-3.8534,-3.8551,-3.8548,-3.8534,-3.8556,-3.8599,-3.861,-3.8625,-3.8627,-3.866,-3.8693,-3.865,-3.8654,-3.8621,-3.8656,-3.8759,-3.8605,-3.8604,-3.8631,-3.8856,-3.8887,-3.8907,-3.8729,-3.8732,-3.8735,-3.8855,0,-3.8687,-3.8756,-3.8715,-3.879,-3.8816,-3.8751,-3.8787,-3.8783,-3.8764,-3.8783,-3.8762,-3.8785,-3.8728,-3.873,-3.8762,-3.874,-3.8803,-3.8731,-3.8757,-3.8759,-3.8756,-3.8927,-3.8961,-3.9075,-3.887,-3.8873,-3.8875,0,-3.8842,-3.8849,-3.8926,-3.8906,-3.8915,-3.8949,-3.8955,-3.8975,-3.8969,-3.8952,-3.8957,-3.8916,-3.8955,-3.8889,-3.8942,-3.8894,-3.8903,-3.8895,-3.8898,-3.8895,-3.882,-3.8926,-3.9111,-3.9126,-3.8898,-3.8897,-3.8895,0,-3.8973,-3.9003,-3.9052,-3.9053,-3.9032,-3.9056,-3.9049,-3.9039,-3.9048,-3.9055,-3.906,-3.9072,-3.9078,-3.9088,-3.905,-3.9006,-3.9108,-3.9039,-3.9093,-3.9094,-3.9114,-3.9112,-3.9299,-3.9127,-3.9127,-3.9127,-3.9126,0,-3.9115,-3.9164,-3.9111,-3.9141,-3.9193,-3.9147,-3.9201,-3.9186,-3.9178,-3.9204,-3.9151,-3.9176,-3.9127,-3.9148,-3.9119,-3.9166,-3.917,-3.9157,-3.9148,-3.9159,-3.916,-3.9161,-3.915,-3.9131,-3.913,-3.9129,-3.9128,0,-3.9269,-3.9236,-3.9284,-3.9261,-3.9256,-3.9295,-3.9275,-3.9301,-3.9279,-3.9313,-3.9318,-3.9283,-3.9304,-3.9269,-3.9288,-3.9268,-3.9332,-3.9313,-3.9333,-3.9326,-3.9381,-3.9375,-3.9571,-3.9593,-3.9412,-3.9413,-3.9415,0,-3.9359,-3.9395,-3.9375,-3.9388,-3.9383,-3.9405,-3.9414,-3.9371,-3.9382,-3.9378,-3.9405,-3.9422,-3.9432,-3.947,-3.9446,-3.946,-3.9438,-3.9506,-3.9439,-3.9449,-3.9434,-3.9431,-3.9433,-3.9518,-3.9521,-3.9522,-3.9524,0,-3.9522,-3.9503,-3.9518,-3.9527,-3.9539,-3.9544,-3.9546,-3.956,-3.9514,-3.953,-3.955,-3.9559,-3.9577,-3.9594,-3.9601,-3.9593,-3.955,-3.9546,-3.9558,-3.9568,-3.9576,-3.9568,-3.9366,-3.954,-3.9539,-3.9537,-3.9536,-3.9536,-3.9643,-3.9671,-3.9661,-3.9678,-3.9675,-3.9678,-3.97,-3.9682,-3.9698,-3.9708,-3.9683,-3.9709,-3.9702,-3.9707,-3.9705,-3.9725,-3.9695,-3.9714,-3.9718,-3.9722,-3.9729,-3.9577,-3.9727,-3.9726,-3.9726,-3.9725,-3.9725,0,-3.9799,-3.9789,-3.9807,-3.9809,-3.9824,-3.9784,-3.9783,-3.9797,-3.9821,-3.9818,-3.983,-3.9854,-3.987,-3.9849,-3.9861,-3.9881,-3.9862,-3.9886,-3.9881,-3.988,-3.9757,-3.9743,-3.9901,-3.9901,-3.9901,-3.9901,-3.9901,-3.9901,-3.9881,-3.9925,-3.9906,-3.9948,-3.9938,-3.9963,-3.9966,-3.9968,-3.9965,-3.9993,-4.0006,-3.9992,-3.9982,-3.9993,-4.0006,-4.0,-4.0005,-4.0035,-4.0021,-3.9906,-3.9889,-3.9872,-3.9858,-4.0038,-4.0038,-4.0141,-4.0142,-4.0143]},{"header":{"parameterUnit":"m.s-1","parameterCategory":1,"la1":30.2991,"la2":30.254,"lo1":-89.0895,"lo2":-89.0444,"dy":0.0017,"dx":0.0017,"nx":28,"ny":28,"refTime":"2023-09-14T21:00:00:Z","depth":0,"parameterNumber":3,"parameterNumberName":"V-component_of_WINDS"},"data":[0,0,0,0,0,0,0,0,0,0,0,0,0,0,0,0,0,0,0,0,0,0,0,0,0,0,0,0,0,0,0,0,0,0,0,0,0,0,0,0,0,0,0,0,0,0,0,0,0,0,0,0,0,0,0,0,0,0,-1.4661,-1.4662,0,-1.4788,-1.4789,-1.4791,-1.4872,-1.4873,-1.4873,-1.4874,-1.5002,-1.5005,-1.5008,0,0,0,0,0,0,0,0,0,0,0,0,0,-1.4485,-1.4488,-1.4661,-1.4662,-1.4664,-1.4788,-1.479,-1.4791,-1.4872,-1.4873,-1.4874,-1.4874,-1.5001,-1.5005,-1.5008,0,0,0,0,0,0,0,0,0,0,0,0,0,-1.4582,-1.4489,-1.4661,-1.4719,-1.4726,-1.4787,-1.479,-1.4792,-1.4872,-1.4873,-1.4874,-1.4874,-1.5,-1.5004,-1.5009,-1.5021,0,0,-1.5022,-1.5024,0,0,0,0,0,0,0,0,-1.4576,-1.4588,-1.4709,-1.4715,-1.4723,-1.4815,-1.4775,-1.4869,-1.4872,-1.4817,-1.4874,-1.4875,-1.4939,-1.4949,-1.4971,-1.5027,-1.5032,-1.5023,-1.5025,-1.5027,-1.5028,0,0,0,0,0,0,0,-1.4569,-1.4583,-1.4711,-1.4711,-1.4719,-1.4739,-1.4753,-1.4793,-1.4872,-1.4821,-1.4828,-1.4842,-1.4943,-1.4966,-1.4974,-1.5034,-1.5022,-1.5026,-1.5029,-1.5031,-1.5105,-1.5105,0,0,0,0,0,0,-1.4554,-1.4577,-1.4707,-1.4715,-1.465,-1.4741,-1.4757,-1.4785,-1.4872,-1.4886,-1.4841,-1.4845,-1.4958,-1.4969,-1.4979,-1.4998,-1.5027,-1.5031,-1.5034,-1.5106,-1.5105,-1.5105,0,0,0,0,0,0,-1.455,-1.4565,-1.4702,-1.4648,-1.4667,-1.4743,-1.4773,-1.4787,-1.481,-1.4887,-1.4901,-1.485,-1.4959,-1.4973,-1.501,-1.5004,-1.5033,-1.5037,-1.5107,-1.5106,-1.5105,-1.5037,0,0,0,0,0,0,-1.4544,-1.4563,-1.4569,-1.4647,-1.4669,-1.4731,-1.4773,-1.4789,-1.4818,-1.4824,-1.4899,-1.4912,-1.4961,-1.5003,-1.5014,-1.501,-1.5041,-1.5108,-1.5106,-1.5105,-1.504,-1.5033,-1.5028,0,0,0,0,0,-1.4538,-1.4545,-1.4569,-1.4584,-1.4679,-1.473,-1.4743,-1.4799,-1.4817,-1.4823,-1.4872,-1.491,-1.5003,-1.5006,-1.5019,-1.5017,-1.5108,-1.5107,-1.5105,-1.5042,-1.5035,-1.5028,0,0,0,0,0,0,-1.4463,-1.4556,-1.4584,-1.4616,-1.4665,-1.4744,-1.4754,-1.479,-1.4834,-1.4838,-1.4906,-1.4922,-1.4951,-1.4988,-1.499,-1.5033,-1.506,-1.5061,-1.5007,-1.5001,-1.4995,-1.4985,-1.5044,0,0,0,0,0,-1.445,-1.4485,-1.4564,-1.4585,-1.4608,-1.4676,-1.4701,-1.4741,-1.4793,-1.4814,-1.4866,-1.4915,-1.4955,-1.498,-1.5022,-1.5046,-1.5062,-1.5051,-1.5045,-1.504,-1.5039,-1.5053,-1.5049,-1.51,-1.51,-1.51,0,0,-1.4424,-1.4479,-1.4497,-1.4572,-1.4614,-1.4647,-1.4693,-1.4727,-1.4753,-1.4819,-1.4857,-1.4896,-1.4956,-1.4986,-1.5001,-1.5017,-1.5029,-1.5038,-1.5033,-1.5036,-1.5051,-1.5046,-1.5042,-1.5099,-1.5099,-1.5099,0,0,-1.4394,-1.444,-1.4461,-1.4503,-1.4566,-1.4612,-1.4616,-1.469,-1.4719,-1.4758,-1.4808,-1.4839,-1.4908,-1.4947,-1.4976,-1.496,-1.4995,-1.4971,-1.494,-1.4953,-1.4949,-1.4946,-1.4938,-1.4935,-1.4971,-1.4971,-1.4971,0,-1.4353,-1.4407,-1.4468,-1.4499,-1.4529,-1.4591,-1.4613,-1.465,-1.4723,-1.4742,-1.4759,-1.4845,-1.489,-1.4929,-1.4925,-1.4947,-1.4954,-1.4963,-1.4945,-1.4942,-1.494,-1.4933,-1.4931,-1.4967,-1.4968,-1.4968,-1.4969,0,-1.4353,-1.4389,-1.4399,-1.4468,-1.45,-1.4526,-1.459,-1.4615,-1.4651,-1.4694,-1.4732,-1.4787,-1.484,-1.4853,-1.4889,-1.4897,-1.4905,-1.4932,-1.4961,-1.493,-1.4926,-1.4924,-1.4962,-1.4964,-1.4965,-1.4966,0,0,-1.4278,-1.4381,-1.4383,-1.4415,-1.4489,-1.4518,-1.4546,-1.4598,-1.4617,-1.4666,-1.469,-1.4746,-1.4772,-1.4805,-1.4846,-1.4857,-1.4838,-1.4883,-1.4886,-1.4871,-1.4849,-1.4826,-1.4823,-1.4863,-1.4863,-1.4863,-1.4843,0,-1.4258,-1.4312,-1.4368,-1.4402,-1.4435,-1.4495,-1.4519,-1.4567,-1.4607,-1.4641,-1.4686,-1.4724,-1.4756,-1.4776,-1.479,-1.4837,-1.4834,-1.484,-1.4885,-1.4886,-1.4867,-1.4821,-1.4798,-1.4777,-1.4842,-1.4842,-1.4842,0,-1.4241,-1.4287,-1.4324,-1.4394,-1.441,-1.4431,-1.4483,-1.4515,-1.4569,-1.4598,-1.4634,-1.4677,-1.4709,-1.4734,-1.4778,-1.478,-1.4802,-1.4828,-1.4829,-1.4834,-1.4861,-1.4823,-1.4772,-1.4768,-1.484,-1.484,-1.484,0,-1.4181,-1.4252,-1.4283,-1.4309,-1.4392,-1.4405,-1.444,-1.4495,-1.4522,-1.4567,-1.4586,-1.4633,-1.4659,-1.4695,-1.4749,-1.4763,-1.4786,-1.4817,-1.481,-1.4808,-1.4811,-1.481,-1.4761,-1.4827,-1.4827,-1.4827,-1.4827,0,-1.4151,-1.4171,-1.4257,-1.4276,-1.43,-1.4363,-1.4385,-1.4425,-1.4474,-1.4501,-1.4555,-1.4579,-1.4651,-1.4683,-1.4726,-1.4754,-1.4766,-1.4789,-1.48,-1.4784,-1.478,-1.4798,-1.48,-1.4827,-1.4827,-1.4827,-1.4827,0,-1.4088,-1.4146,-1.4184,-1.4259,-1.4278,-1.4292,-1.4357,-1.4377,-1.4421,-1.4454,-1.4465,-1.4534,-1.4575,-1.4633,-1.4691,-1.472,-1.4742,-1.476,-1.4723,-1.4729,-1.4718,-1.4718,-1.4678,-1.4675,-1.4744,-1.4743,-1.4743,0,-1.4064,-1.4081,-1.4158,-1.418,-1.4213,-1.4249,-1.4277,-1.4339,-1.4366,-1.4429,-1.4441,-1.4486,-1.4525,-1.4587,-1.4642,-1.4687,-1.4706,-1.4688,-1.4713,-1.4695,-1.4703,-1.4701,-1.4702,-1.4682,-1.4681,-1.468,-1.4679,0,-1.4015,-1.4043,-1.4082,-1.4131,-1.4163,-1.4204,-1.4248,-1.4262,-1.4334,-1.4361,-1.4404,-1.4434,-1.4494,-1.4537,-1.4589,-1.4624,-1.4663,-1.4672,-1.4672,-1.4654,-1.4631,-1.4642,-1.4705,-1.4672,-1.4673,-1.4673,-1.4674,-1.4674,-1.397,-1.3987,-1.4044,-1.4085,-1.4124,-1.4164,-1.4186,-1.4232,-1.4269,-1.4322,-1.4357,-1.4397,-1.4451,-1.4524,-1.4558,-1.4589,-1.4605,-1.4606,-1.4606,-1.4605,-1.4599,-1.4627,-1.4599,-1.4599,-1.46,-1.46,-1.46,0,-1.3923,-1.3962,-1.3999,-1.4059,-1.409,-1.4125,-1.4175,-1.4199,-1.4234,-1.4281,-1.4318,-1.4366,-1.4408,-1.4465,-1.4512,-1.4526,-1.4544,-1.4535,-1.4534,-1.4541,-1.4582,-1.4577,-1.4519,-1.4519,-1.4519,-1.4519,-1.4519,-1.4519,-1.3902,-1.3932,-1.3967,-1.4017,-1.4056,-1.4096,-1.4121,-1.4157,-1.4194,-1.4245,-1.4281,-1.4318,-1.4369,-1.4419,-1.4459,-1.4475,-1.4488,-1.4473,-1.4494,-1.4531,-1.4539,-1.4546,-1.454,-1.4476,-1.4476,-1.4451,-1.445,-1.445]}]]